Location: *
(38.4303°S, 157.0822°W)
Time: 15:30:00
(UTC+00:00)

Cosmos 2333 Rocket - Pass Details

Date: 21 May 2024
Orbit: 838 x 863 km, 70.8° (Epoch: 22 June)

Event Time Altitude Azimuth Distance (km) Brightness Sun altitude
Rises 16:59:04 0° 302° (WNW) 3,443 5.0 -6.2°
Reaches altitude 10° 17:02:01 10° 288° (WNW) 2,513 4.2 -5.7°
Maximum altitude 17:06:36 24° 235° (SW) 1,736 3.3 -4.8°
Drops below altitude 10° 17:11:14 10° 182° (S) 2,527 4.4 -4.0°
Sets 17:14:13 0° 168° (SSE) 3,467 5.3 -3.4°
